Location: Unspecified
(48.8656°N, 0.0000°E)
Time: 14:00:56
(UTC+00:00)

Vanguard 1 Rocket - Pass Details

Date: 19 June 2019
Orbit: 651 x 4225 km, 34.3° (Epoch: 15 July)

Event Time Altitude Azimuth Distance (km) Brightness Sun altitude
Rises 18:41:10 0° 238° (WSW) 6,762 12.4 11.3°
Reaches altitude 10° 18:47:04 10° 230° (SW) 5,099 11.6 10.4°
Maximum altitude 18:57:32 29° 177° (S) 2,582 9.5 8.8°
Drops below altitude 10° 19:03:51 10° 119° (ESE) 3,002 9.4 7.9°
Sets 19:06:20 0° 108° (ESE) 3,666 9.8 7.5°
